When you browse on this site, cookies collect data to enhance your experience and personalize the content and advertising you see.
Visit our Privacy Policy to learn more. By continuing to use the site, you agree to this use of cookies and data.
  • In Portugal
  • List of Countries
  • For 7 days
  • Water Temperature
  • Satellite Maps
  • Weather Map
  • Weather Widgets
  • user-avatar
    Login

    Hourly Weather Zandzhan

    Today, 27 May, Monday

    Time Temperature Precipitation Wind Pressure Humidity
    00:00 +20°C° 0 mm 2 mps 618 mmHg 30%
    01:00 +19°C° 0 mm 2 mps 618 mmHg 31%
    02:00 +19°C° 0 mm 3 mps 618 mmHg 33%
    03:00 +18°C° 0 mm 3 mps 617 mmHg 35%
    04:00 +18°C° 0 mm 3 mps 617 mmHg 37%
    05:00 +18°C° 0 mm 3 mps 618 mmHg 40%
    06:00 +18°C° 0 mm 4 mps 618 mmHg 42%
    07:00 +21°C° 0 mm 5 mps 619 mmHg 32%
    08:00 +23°C° 0 mm 6 mps 620 mmHg 23%
    09:00 +26°C° 0 mm 7 mps 620 mmHg 13%
    10:00 +27°C° 0 mm 7 mps 620 mmHg 11%
    11:00 +28°C° 0 mm 8 mps 621 mmHg 10%
    12:00 +29°C° 0 mm 8 mps 621 mmHg 9%
    13:00 +29°C° 0 mm 8 mps 621 mmHg 9%
    14:00 +31°C° 0 mm 8 mps 621 mmHg 8%
    15:00 +31°C° 0 mm 8 mps 621 mmHg 8%
    16:00 +29°C° 0 mm 8 mps 620 mmHg 10%
    17:00 +28°C° 0 mm 7 mps 620 mmHg 12%
    18:00 +27°C° 0 mm 6 mps 620 mmHg 13%
    19:00 +23°C° 0 mm 5 mps 620 mmHg 20%
    20:00 +21°C° 0 mm 3 mps 619 mmHg 26%
    21:00 +20°C° 0 mm 1 mps 619 mmHg 33%
    22:00 +18°C° 0 mm 2 mps 619 mmHg 40%
    23:00 +17°C° 0 mm 2 mps 618 mmHg 47%

    Tomorrow, 28 May, Tuesday

    Time Temperature Precipitation Wind Pressure Humidity
    00:00 +16°C° 0 mm 2 mps 618 mmHg 54%
    01:00 +15°C° 0 mm 2 mps 618 mmHg 59%
    02:00 +14°C° 0 mm 2 mps 617 mmHg 64%
    03:00 +14°C° 0 mm 2 mps 617 mmHg 69%
    04:00 +14°C° 0 mm 2 mps 617 mmHg 69%
    05:00 +14°C° 0 mm 2 mps 618 mmHg 69%
    06:00 +14°C° 0 mm 2 mps 618 mmHg 69%
    07:00 +16°C° 0 mm 2 mps 618 mmHg 59%
    08:00 +18°C° 0 mm 2 mps 619 mmHg 48%
    09:00 +21°C° 0 mm 1 mps 620 mmHg 38%
    10:00 +21°C° 0 mm 2 mps 620 mmHg 31%
    11:00 +24°C° 0 mm 2 mps 620 mmHg 25%
    12:00 +26°C° 0 mm 2 mps 620 mmHg 18%
    13:00 +26°C° 0 mm 2 mps 620 mmHg 17%
    14:00 +27°C° 0 mm 2 mps 620 mmHg 16%
    15:00 +27°C° 0 mm 2 mps 620 mmHg 15%
    16:00 +26°C° 0 mm 2 mps 619 mmHg 21%
    17:00 +25°C° 0 mm 3 mps 619 mmHg 26%
    18:00 +25°C° 0 mm 3 mps 619 mmHg 31%
    19:00 +21°C° 0 mm 3 mps 618 mmHg 44%
    20:00 +19°C° 0 mm 3 mps 618 mmHg 56%
    21:00 +17°C° 0 mm 4 mps 618 mmHg 68%
    22:00 +16°C° 0 mm 3 mps 618 mmHg 70%
    23:00 +14°C° 0 mm 3 mps 617 mmHg 73%

    Day after tomorrow, 29 May, Wednesday

    Time Temperature Precipitation Wind Pressure Humidity
    00:00 +15°C° 0 mm 2 mps 617 mmHg 75%
    01:00 +14°C° 0 mm 2 mps 617 mmHg 75%
    02:00 +14°C° 0 mm 2 mps 617 mmHg 75%
    03:00 +14°C° 0 mm 2 mps 617 mmHg 75%
    04:00 +14°C° 0 mm 2 mps 617 mmHg 74%
    05:00 +14°C° 0 mm 2 mps 617 mmHg 72%
    06:00 +14°C° 0 mm 2 mps 617 mmHg 71%
    07:00 +16°C° 0 mm 2 mps 618 mmHg 62%
    08:00 +18°C° 0 mm 2 mps 619 mmHg 53%
    09:00 +19°C° 0 mm 2 mps 619 mmHg 44%
    10:00 +21°C° 0 mm 2 mps 619 mmHg 39%
    11:00 +23°C° 0 mm 2 mps 620 mmHg 33%
    12:00 +25°C° 0 mm 2 mps 620 mmHg 28%
    13:00 +25°C° 0 mm 2 mps 620 mmHg 27%
    14:00 +26°C° 0 mm 3 mps 619 mmHg 26%
    15:00 +26°C° 0 mm 3 mps 619 mmHg 25%
    16:00 +25°C° 0 mm 4 mps 619 mmHg 33%
    17:00 +22°C° 0 mm 5 mps 618 mmHg 41%
    18:00 +21°C° 0 mm 6 mps 618 mmHg 49%
    19:00 +19°C° 0 mm 5 mps 618 mmHg 54%
    20:00 +18°C° 0 mm 4 mps 618 mmHg 59%
    21:00 +17°C° 0 mm 3 mps 618 mmHg 64%
    22:00 +16°C° 0.1 mm 3 mps 618 mmHg 66%
    23:00 +15°C° 0.1 mm 2 mps 618 mmHg 68%

    30 May, Thursday

    Time Temperature Precipitation Wind Pressure Humidity
    00:00 +15°C° 0.1 mm 2 mps 618 mmHg 71%
    01:00 +14°C° 0 mm 2 mps 617 mmHg 72%
    02:00 +14°C° 0 mm 2 mps 617 mmHg 74%
    03:00 +13°C° 0 mm 2 mps 617 mmHg 76%
    04:00 +14°C° 0 mm 2 mps 617 mmHg 73%
    05:00 +14°C° 0 mm 2 mps 617 mmHg 70%
    06:00 +14°C° 0 mm 2 mps 618 mmHg 67%
    07:00 +16°C° 0 mm 2 mps 618 mmHg 58%
    08:00 +18°C° 0 mm 2 mps 619 mmHg 48%
    09:00 +20°C° 0 mm 2 mps 619 mmHg 39%
    10:00 +21°C° 0 mm 2 mps 619 mmHg 35%
    11:00 +23°C° 0 mm 2 mps 619 mmHg 31%
    12:00 +25°C° 0 mm 2 mps 619 mmHg 27%
    13:00 +25°C° 0 mm 3 mps 619 mmHg 27%
    14:00 +25°C° 0 mm 3 mps 619 mmHg 26%
    15:00 +26°C° 0 mm 3 mps 619 mmHg 25%
    16:00 +25°C° 0 mm 4 mps 619 mmHg 30%
    17:00 +23°C° 0 mm 4 mps 618 mmHg 34%
    18:00 +22°C° 0 mm 5 mps 618 mmHg 38%
    19:00 +21°C° 0 mm 4 mps 618 mmHg 45%
    20:00 +19°C° 0 mm 4 mps 618 mmHg 52%
    21:00 +18°C° 0 mm 3 mps 618 mmHg 59%
    22:00 +17°C° 0.1 mm 2 mps 617 mmHg 62%
    23:00 +16°C° 0.1 mm 2 mps 617 mmHg 64%

    31 May, Friday

    Time Temperature Precipitation Wind Pressure Humidity
    00:00 +16°C° 0.1 mm 2 mps 617 mmHg 67%
    01:00 +15°C° 0 mm 1 mps 617 mmHg 67%
    02:00 +15°C° 0 mm 1 mps 616 mmHg 67%
    03:00 +14°C° 0 mm 1 mps 616 mmHg 67%
    04:00 +15°C° 0 mm 1 mps 616 mmHg 64%
    05:00 +15°C° 0 mm 2 mps 617 mmHg 60%
    06:00 +15°C° 0 mm 2 mps 617 mmHg 57%
    07:00 +17°C° 0 mm 2 mps 618 mmHg 50%
    08:00 +19°C° 0 mm 2 mps 618 mmHg 42%
    09:00 +21°C° 0 mm 2 mps 618 mmHg 35%
    10:00 +23°C° 0 mm 1 mps 619 mmHg 32%
    11:00 +24°C° 0 mm 1 mps 619 mmHg 30%
    12:00 +24°C° 0 mm 0 mps 619 mmHg 28%
    13:00 +26°C° 0 mm 1 mps 619 mmHg 26%
    14:00 +26°C° 0 mm 1 mps 619 mmHg 25%
    15:00 +27°C° 0 mm 2 mps 618 mmHg 24%
    16:00 +26°C° 0 mm 3 mps 618 mmHg 27%
    17:00 +26°C° 0 mm 3 mps 618 mmHg 31%
    18:00 +25°C° 0 mm 4 mps 618 mmHg 34%
    19:00 +22°C° 0 mm 4 mps 618 mmHg 42%
    20:00 +21°C° 0 mm 3 mps 618 mmHg 49%
    21:00 +19°C° 0 mm 3 mps 618 mmHg 57%
    22:00 +18°C° 0.4 mm 2 mps 617 mmHg 60%
    23:00 +18°C° 0.4 mm 2 mps 617 mmHg 64%

    1 June, Saturday

    Time Temperature Precipitation Wind Pressure Humidity
    00:00 +17°C° 0.4 mm 2 mps 617 mmHg 68%
    01:00 +16°C° 0 mm 2 mps 617 mmHg 69%
    02:00 +16°C° 0 mm 1 mps 616 mmHg 69%
    03:00 +16°C° 0 mm 1 mps 616 mmHg 70%
    04:00 +16°C° 0 mm 1 mps 617 mmHg 67%
    05:00 +16°C° 0 mm 1 mps 617 mmHg 65%
    06:00 +18°C° 0 mm 1 mps 617 mmHg 62%
    07:00 +20°C° 0 mm 1 mps 618 mmHg 55%
    08:00 +21°C° 0 mm 1 mps 618 mmHg 48%
    09:00 +23°C° 0 mm 1 mps 619 mmHg 41%
    10:00 +25°C° 0 mm 1 mps 619 mmHg 35%
    11:00 +26°C° 0 mm 2 mps 620 mmHg 29%
    12:00 +28°C° 0 mm 3 mps 620 mmHg 23%
    13:00 +29°C° 0 mm 3 mps 620 mmHg 22%
    14:00 +29°C° 0 mm 3 mps 620 mmHg 20%
    15:00 +30°C° 0 mm 4 mps 620 mmHg 18%
    16:00 +29°C° 0 mm 3 mps 620 mmHg 21%
    17:00 +29°C° 0 mm 3 mps 620 mmHg 25%
    18:00 +28°C° 0 mm 3 mps 620 mmHg 28%
    19:00 +26°C° 0 mm 3 mps 619 mmHg 35%
    20:00 +23°C° 0 mm 4 mps 619 mmHg 42%
    21:00 +22°C° 0 mm 4 mps 619 mmHg 48%
    22:00 +21°C° 0 mm 3 mps 618 mmHg 53%
    23:00 +20°C° 0 mm 2 mps 618 mmHg 57%
    Show more